sat.trackr.live / text

‹ back to catalog

STARLINK-35520

NORAD 66133 · 2025-237V

PAYLOAD ACTIVE UNKNOWN

§ Identity

Operator
Country
US
Launch date
2025-10-22
Launch site
AFWTR
Launch vehicle
Mass (kg)
RCS (m²)

Purposes: comms

External: N2YO · Heavens-Above · Gunter

§ Orbital elements

Epoch: 2026-05-25T02:47:29.525280Z

Period
94.10 min
Inclination
53.1606°
Eccentricity
0.0001129
Mean motion
15.30206926 rev/d
Perigee alt
474.4 km
Apogee alt
476.0 km
Semi-major
6,853.3 km
B*
7.9104e-4
RAAN
44.4944°
Arg perigee
80.8554°
Mean anomaly
279.2575°
Rev number
3,431

§ Raw data

STARLINK-355201 66133U 25237V   26145.11631395  .00023147  00000+0  79104-3 0  99952 66133  53.1606  44.4944 0001129  80.8554 279.2575 15.30206926 34316

JSON: /api/v1/satellites/66133 · /tle

For live sub-satellite position, see the globe view (requires WebGL).

§ Visibility from observer

Set your observer location to see the next 7 days of passes ≥ 10°. The values pass through the URL so the page stays shareable.

No JS? Fill the form by hand. The geolocation button needs JavaScript.